Location: Del Amo
(33.8464°N, 118.2104°W)
Time: 18:05:21
(UTC+00:00)

Vanguard 1 Rocket - Pass Details

Date: 19 September 2024
Orbit: 650 x 4218 km, 34.3° (Epoch: 04 October)

Event Time Altitude Azimuth Distance (km) Brightness Sun altitude
Rises 20:01:02 0° 277° (W) 8,454 12.3 57.0°
Reaches altitude 10° 20:14:58 10° 250° (WSW) 7,216 12.4 56.5°
Maximum altitude 20:20:21 11° 237° (WSW) 6,871 12.4 56.2°
Drops below altitude 10° 20:25:26 10° 223° (SW) 6,659 12.5 55.9°
Sets 20:36:29 0° 193° (SSW) 6,728 12.4 55.2°
